Location: ??????
(55.4348°N, 39.2112°E)
Time: 16:59:04
(UTC+00:00)

Cosmos 1633 Rocket - Pass Details

Date: 14 April 2024
Orbit: 605 x 619 km, 82.5° (Epoch: 24 May)

Event Time Altitude Azimuth Distance (km) Brightness Sun altitude
Rises 00:29:30 0° 350° (N) 2,877 7.0 -14.4°
Reaches altitude 10° 00:31:47 10° 356° (N) 1,969 6.2 -14.2°
Maximum altitude 00:36:02 51° 73° (ENE) 769 3.9 -13.7°
Drops below altitude 10° 00:40:16 10° 150° (SSE) 1,959 5.5 -13.3°
Sets 00:42:31 0° 155° (SSE) 2,860 6.3 -13.0°
